Location: downtown San Diego
(32.7310°N, 117.1990°W)
Time: 10:22:46
(UTC-07:00)

Cosmos 1441 Rocket - Pass Details

Date: 12 July 2018
Orbit: 498 x 541 km, 81.1° (Epoch: 21 September)

Event Time Altitude Azimuth Distance (km) Brightness Sun altitude
Rises 21:03:21 0° 354° (N) 2,592 7.4 -12.4°
Reaches altitude 10° 21:05:29 10° 356° (N) 1,706 6.4 -12.8°
Maximum altitude 21:09:13 76° 82° (E) 520 3.0 -13.4°
Enters shadow 21:12:00 17° 167° (SSE) 1,317 4.8 -13.9°
